User: anonymous   Login
Location: Sperry Observatory
(40.6664°N, 74.3236°W)
Time: 14:11:16
(UTC-04:00)
Language:

UOSAT-12 - Orbit

View from above orbital plane
View from above orbital plane
View from above satellite
View from above satellite

Ground track
Ground track

The orbit data is extracted from the following two-line orbital elements,

1 25693U 99021A   14298.16631510  .00001088  00000-0  15931-3 0  6438
2 25693 064.5571 222.0976 0049797 271.4263 188.8968 14.80099159837152
Epoch (UTC): 25 October 2014 03:59:29
Eccentricity: 0.0049797
inclination: 64.5571°
perigee height: 594 km
apogee height: 664 km
right ascension of ascending node: 222.0976°
argument of perigee: 271.4263°
revolutions per day: 14.80099159
mean anomaly at epoch: 188.8968°
orbit number at epoch: 83715

The dashed part of the orbit path shows where the satellite is in the earth's shadow,  

DLR